STARLINK-31928 (59897 NORAD) Tracking and Keplerian Element Data

This shows tracking and keplerian element data for the satellite.

Feedback or suggestion? Click here.




ElementValue
Catalog59897
NameSTARLINK-31928
Epoch Orbit277
Epoch Day159.91667824
Epoch Year2024
RAAN175.8665
Inclination43.0033
Eccentricity0.0001671
Argument of Perigee261.0668
Mean Anonmoly356.0676
Mean Motion15.80491484
Decay Rate-0.01005937
L11 59897U 24100N 24159.91667824 -.01005937 00000+0 -57592-2 0 9995
L22 59897 43.0033 175.8665 0001671 261.0668 356.0676 15.80491484 2778



Live tracking and technical data element details for STARLINK-31928 (NORAD 59897). STARLINK-31928 can be tracked NOW for your location showing map with azimuth and elevation plus other details from your city location.







IsCatalogInMostPopularTable: catalog: 59897, numindb: 9
Update: records affected: 1



GetName: 59897 STARLINK-31928

Hit Count: updated at: Thu, 25 Jul 2024 00:34:24 GMT